Location: Pakowki
(49.4656°N, 110.9468°W)
Time: 08:16:50
(UTC+00:00)

ISS - Visible Passes

Search period start: 06 July 2022 00:00
Search period end: 16 July 2022 00:00
Orbit: 414 x 420 km, 51.6° (Epoch: 06 July)

Date Brightness Start Highest point End Pass type
(mag) Time Alt. Az. Time Alt. Az. Time Alt. Az.
06 Jul -3.7 08:18:59 50° S 08:19:22 54° SSE 08:22:40 10° ENE visible
06 Jul -3.2 09:52:49 10° W 09:56:09 61° N 09:59:30 10° ENE visible
07 Jul -2.7 07:32:06 31° ESE 07:32:06 31° ESE 07:34:21 10° E visible
07 Jul -3.5 09:04:58 13° W 09:07:51 70° NNW 09:11:13 10° ENE visible
07 Jul -3.2 10:41:29 10° WNW 10:44:50 61° N 10:48:11 10° E visible
08 Jul -1.5 06:45:08 15° E 06:45:08 15° E 06:45:55 10° E visible
08 Jul -3.8 08:17:59 29° WSW 08:19:34 85° NNW 08:22:57 10° ENE visible
08 Jul -3.1 09:53:11 10° WNW 09:56:31 57° N 09:59:51 10° E visible
09 Jul -3.9 07:30:51 60° SW 07:31:19 73° SSE 07:34:41 10° ENE visible
09 Jul -3.1 09:04:52 10° W 09:08:11 57° N 09:11:31 10° ENE visible
09 Jul -3.7 10:41:45 10° WNW 10:45:08 85° NNE 10:48:31 10° ESE visible
10 Jul -3.5 06:43:26 49° SE 06:43:26 49° SE 06:46:23 10° ENE visible
10 Jul -3.3 08:16:31 10° W 08:19:51 61° N 08:23:12 10° ENE visible
10 Jul -3.4 09:53:27 10° WNW 09:56:49 69° NNE 10:00:11 10° E visible
11 Jul -3.1 05:55:13 35° SE 05:55:13 35° SE 05:58:00 10° E visible
11 Jul -3.6 07:28:10 10° W 07:31:31 71° NNW 07:34:53 10° ENE visible
11 Jul -3.2 09:05:09 10° WNW 09:08:29 61° N 09:11:50 10° E visible
11 Jul -3.7 10:41:58 10° WNW 10:45:16 55° SSW 10:48:34 10° SE visible
12 Jul -2.7 05:03:57 10° SSW 05:06:43 24° SE 05:09:31 10° E visible
12 Jul -3.8 06:39:50 10° WSW 06:43:12 88° NNW 06:46:35 10° ENE visible
12 Jul -3.1 08:16:48 10° WNW 08:20:08 57° N 08:23:27 10° E visible
12 Jul -3.9 09:53:38 10° WNW 09:57:00 77° SSW 10:00:22 10° ESE visible
13 Jul -2.2 04:16:24 10° S 04:18:35 16° SE 04:20:47 10° E visible
13 Jul -3.9 05:51:34 10° WSW 05:54:53 71° SSE 05:58:15 10° ENE visible
13 Jul -3.1 07:28:25 10° W 07:31:45 57° N 07:35:05 10° ENE visible
13 Jul -3.7 09:05:19 10° WNW 09:08:42 83° NNE 09:12:04 10° ESE visible
13 Jul -2.8 10:42:18 10° W 10:45:13 27° SW 10:48:07 10° SSE visible
14 Jul -3.6 05:03:22 10° SW 05:06:37 50° SSE 05:09:53 10° ENE visible
14 Jul -3.3 06:40:02 10° W 06:43:22 62° N 06:46:43 10° ENE visible
14 Jul -3.5 08:16:59 10° WNW 08:20:20 68° NNE 08:23:41 10° E visible
14 Jul -3.4 09:53:50 10° W 09:57:00 39° SSW 10:00:10 10° SE visible
15 Jul -3.1 04:15:19 10° SW 04:18:23 34° SSE 04:21:27 10° E visible
15 Jul -3.6 05:51:38 10° W 05:54:59 73° NNW 05:58:21 10° ENE visible
15 Jul -3.2 07:28:37 10° WNW 07:31:57 60° N 07:35:17 10° E visible
15 Jul -3.8 09:05:25 10° WNW 09:08:45 57° SSW 09:12:03 10° SE visible
15 Jul -1.9 10:43:22 10° WSW 10:44:56 13° SW 10:46:31 10° SSW visible
